Flag for Canada Weather past 2 weeks in Eureka, Nunavut, Canada

Now
32 °F

Scattered clouds.


Feels Like: 32 °F
Forecast: 21 / 35 °F
Wind: 2 mph from East

Location: Eureka

Current Time: Sep 2, 2015 at 11:47:56 PM

Latest Report: Sep 2, 2015 at 10:00 PM


Visibility: 15 mi

Pressure: 30.16 "Hg

Humidity: 64%

Dew point: 21 °F

Location of EurekaLocation

Historic Weather in Eureka — Graph

°F

Eureka temperature yesterday

Maximum temperature yesterday: 39 °F (at 11:00 AM)
Minimum temperature yesterday: 30 °F (at 2:00 AM)
Average temperature yesterday: 36 °F

Past Weeks' High & Low Weather Summary

 TemperatureHumidityPressure
High45 °F (Aug 19, 11:00 AM)100% (Aug 22, 4:00 AM)30.34 "Hg (Aug 22, 4:00 AM)
Low27 °F (Aug 30, 3:00 AM)45% (Aug 28, 7:00 PM)29.81 "Hg (Aug 28, 9:00 PM)
Average37 °F76%30.11 "Hg
* Reported Aug 18 10:00 PM — Sep 2 10:00 PM, Eureka, Weather by CustomWeather, © 2015

Note: Actual official high and low records may vary slightly from our data, if they occured in-between our weather recording intervals... More about our weather records

Advertising

Eureka weather history for previous 24 hours

 ConditionsComfort  
Time TempWeatherWind HumidityBarometerVisibility
10:00 PM
Wed, Sep 2
32 °FScattered clouds.2 mph64%30.16 "Hg15 mi
9:00 PM34 °FPartly sunny.2 mph65%30.15 "Hg15 mi
8:00 PM36 °FPartly sunny.2 mph60%30.15 "Hg15 mi
7:00 PM34 °FPartly sunny.No wind75%30.15 "Hg15 mi
6:00 PM37 °FScattered clouds.3 mph65%30.14 "Hg15 mi
5:00 PM39 °FScattered clouds.3 mph56%30.14 "Hg15 mi
4:00 PM37 °FPassing clouds.No wind65%30.14 "Hg15 mi
3:00 PM37 °FPassing clouds.2 mph65%30.14 "Hg15 mi
2:00 PM39 °FPassing clouds.2 mph52%30.14 "Hg15 mi
1:00 PM37 °FScattered clouds.3 mph60%30.14 "Hg15 mi
12:00 PM37 °FScattered clouds.3 mph60%30.14 "Hg15 mi
11:00 AM36 °FScattered clouds.3 mph60%30.15 "Hg15 mi
10:00 AM36 °FPassing clouds.No wind60%30.15 "Hg15 mi
9:00 AM34 °FScattered clouds.2 mph75%30.15 "Hg15 mi
8:00 AM32 °FPassing clouds.No wind69%30.15 "Hg15 mi
7:00 AM30 °FPassing clouds.3 mph69%30.16 "Hg15 mi
6:00 AM28 °FPassing clouds.3 mph69%30.16 "Hg15 mi
5:00 AM28 °FScattered clouds.3 mph74%30.16 "Hg15 mi
4:00 AM30 °FScattered clouds.No wind69%30.16 "Hg15 mi
3:00 AM28 °FClear.5 mph74%30.16 "Hg15 mi
2:00 AM28 °FClear.3 mph74%30.16 "Hg15 mi
1:00 AM28 °FClear.3 mph74%30.16 "Hg15 mi
Weather by CustomWeather, © 2015

See weather overviewHow to use our weather pages